カタログに戻る

COSMOS 1135

運用中ナビゲーションLEO
NORAD 11543·PAYLOAD·🇷🇺 Russia

打ち上げ Sep 25, 1979 から Plesetsk Cosmodrome

Loading…

次のパス (今後24時間)

TLE

最新Source: Space-Track

元期: Sep 14, 2026, 14:26 UTC

1 11543U 79084F   26257.60199257  .00000003  00000-0  12507-3 0  9994
2 11543  74.0277 330.4414 0018586 102.1351 326.8630 12.47104701138336

AllMySatでCOSMOS 1135をリアルタイム追跡

Download on the App Store